Probability
0 0 0 0 0 0 0 0 0 0 0 0 0 0 0 0 0 0 0 0 0 0 0 0 0 0 0 0 0 0 0 0 0 0 0 0 0 0 0 0 0 0 0
0 0 0 1 1 0 0 0 0 0 0 0 0 0 0 0 0 0 0 0 0 0 0 0 0 0 0 0 0 0 0 0 0 0 0 0 0 0 0 0 0 0 0
0 0 0 1 1 0 0 0 0 0 0 0 0 0 0 0 0 0 0 0 0 0 0 0 0 0 0 0 0 0 0 0 0 0 0 0 0 0 0 0 0 0 0
0 0 0 1 1 0 0 0 0 0 0 0 0 0 0 0 0 0 0 0 0 0 0 0 0 0 0 0 0 0 0 0 0 0 0 0 0 0 0 0 0 0 0
0 0 0 0 0 0 0 0 0 0 0 0 0 0 0 0 0 0 0 0 0 0 0 0 0 0 0 0 0 0 0 0 0 0 0 0 0 0 0 0 0 0 0
0 0 0 0 0 0 0 0 0 0 0 0 0 0 0 0 0 0 0 0 0 0 0 0 0 0 0 0 0 0 0 0 0 0 0 0 0 0 0 0 0 0 0
0 0 0 0 0 0 0 0 0 0 0 0 0 0 0 0 0 0 0 0 0 0 0 0 0 0 0 0 0 0 0 0 0 0 0 0 0 0 0 0 0 0 0
0 0 0 0 0 0 0 1 1 0 0 0 0 0 0 0 0 0 0 0 0 0 0 0 0 0 0 0 0 0 0 0 0 0 0 0 0 0 0 0 0 0 0
0 0 0 0 0 0 0 1 1 0 0 0 0 0 0 0 0 0 0 0 0 0 0 0 0 0 0 0 0 0 0 0 0 0 0 0 0 0 0 0 0 0 0
1 1 0 0 0 1 1 1 1 1 0 0 0 0 0 0 0 0 0 0 0 0 0 0 0 0 0 0 0 0 0 0 0 0 0 0 0 0 0 0 0 0 0
4 3 1 1 1 2 2 2 2 2 1 1 0 0 0 0 0 0 0 0 0 0 0 0 0 0 0 0 0 0 0 0 0 0 0 0 0 0 0 0 0 0 0
8 5 4 4 3 2 2 3 3 3 3 2 1 1 0 0 0 0 0 0 0 0 0 0 0 0 0 0 0 0 0 0 0 0 0 0 0 0 0 0 0 0 0
10 9 8 8 5 3 3 4 4 3 3 3 3 2 1 1 0 0 0 0 0 0 0 0 0 0 0 0 0 0 0 0 0 0 0 0 0 0 0 0 0 0 0
11 11 12 11 8 6 6 7 5 4 4 4 3 3 3 2 1 1 0 0 0 0 0 0 0 0 0 0 0 0 0 0 0 0 0 0 0 0 0 0 0 0 0
13 15 17 16 12 10 11 11 7 6 6 5 4 4 5 4 3 3 2 1 1 1 0 0 0 0 0 0 0 0 0 0 0 0 0 0 0 0 0 0 0 0 0
18 20 21 20 16 13 13 12 10 8 8 7 5 6 6 5 5 5 5 3 3 2 1 1 1 2 1 1 0 0 0 0 0 0 0 0 0 0 0 0 0 0 0
21 23 24 23 19 16 15 13 11 8 7 6 6 6 6 6 6 6 6 5 4 4 3 2 3 3 3 1 0 0 0 0 0 0 0 0 0 0 0 0 0 0 0
22 23 24 23 20 17 15 14 11 8 6 6 6 7 7 6 7 7 7 6 6 6 5 4 3 4 3 1 0 1 1 0 0 0 0 0 0 0 0 0 0 0 0
19 19 20 20 18 16 14 14 12 10 8 8 8 9 8 7 7 8 7 6 6 6 6 5 3 3 4 2 0 0 1 1 0 0 0 0 0 0 0 0 0 0 0
15 16 17 17 16 14 13 13 13 11 9 10 11 11 10 8 8 7 7 7 8 8 7 5 3 2 4 3 1 0 0 0 0 0 0 0 0 0 0 0 0 0 0
14 16 17 16 13 11 10 11 12 12 11 12 13 13 12 9 7 5 5 7 8 8 9 8 4 3 4 4 2 1 0 0 0 0 0 0 0 0 0 0 0 0 0
17 19 19 17 13 9 5 5 9 12 13 13 13 14 12 9 6 3 3 4 4 5 8 9 6 5 6 6 4 2 1 0 0 0 0 0 0 0 0 0 0 0 0
23 22 21 19 16 9 2 1 4 9 12 14 15 15 14 10 7 5 4 3 3 3 4 6 6 5 6 6 4 3 2 1 0 0 0 0 0 0 0 0 0 0 0
24 23 21 19 16 10 3 0 2 5 10 13 15 15 13 11 9 7 7 6 5 4 2 2 2 3 4 4 3 3 3 2 0 1 1 0 0 0 0 0 0 0 0
20 19 19 17 16 11 4 0 2 6 9 11 12 12 10 9 7 6 8 10 9 8 4 1 1 1 1 1 1 1 2 2 1 1 1 1 0 0 0 0 1 1 0
17 16 15 16 16 12 5 1 2 6 9 10 10 10 7 6 3 3 8 11 12 11 7 3 1 0 0 0 0 0 1 1 1 1 1 1 1 0 0 1 2 2 1
Wind_Speed
5 5 4 3 3 4 5 3 3 4 3 3 3 4 4 4 4 5 7 8 7 6 7 7 7 7 7 7 7 7 7 8 7 7 7 7 7 7 6 6 6 6 5
5 5 5 3 3 3 2 2 4 3 3 3 3 3 3 4 4 4 6 9 8 6 6 6 6 7 7 7 7 7 7 7 7 7 6 6 6 7 7 6 5 5 5
5 5 4 4 3 3 4 3 3 3 3 3 3 3 3 3 4 4 4 4 7 8 6 6 5 6 6 7 7 7 7 7 7 7 7 6 6 6 6 6 6 6 5
6 5 4 4 3 4 4 3 3 2 2 2 2 2 3 3 3 4 4 4 3 5 8 7 6 6 6 7 7 7 7 7 8 7 7 7 7 7 7 7 7 7 6
7 5 4 3 4 3 3 3 3 2 2 2 3 3 2 3 3 3 3 4 3 3 4 9 8 6 6 6 6 7 8 8 8 8 7 7 7 7 7 7 7 7 7
7 6 5 5 5 3 3 2 2 2 1 2 1 3 2 2 2 2 3 4 4 4 4 5 6 7 7 6 5 6 7 7 7 8 8 7 7 7 7 7 7 6 7
7 6 5 5 5 4 4 4 4 4 3 2 2 3 3 3 2 2 2 2 4 4 3 3 3 3 6 8 6 5 6 6 7 7 7 7 7 7 7 7 7 6 6
8 7 6 6 5 4 5 4 4 3 3 3 2 2 3 3 4 3 3 3 3 3 4 4 3 3 2 4 7 7 6 6 6 6 6 7 7 7 7 7 7 7 7
8 7 7 6 5 6 5 6 5 5 4 4 3 3 2 1 2 3 3 3 3 3 3 4 5 4 4 3 5 8 6 4 5 5 5 6 6 6 6 7 7 7 7
9 8 7 7 6 6 5 7 6 5 5 4 4 3 3 2 2 2 4 4 4 4 3 3 4 4 4 3 3 5 5 4 4 4 5 5 5 5 5 6 6 6 7
9 9 8 7 7 6 6 5 5 6 5 5 4 3 3 3 4 3 2 3 4 4 4 4 3 3 4 3 4 6 6 4 4 4 4 4 4 4 4 5 5 6 6
8 9 9 7 7 6 6 6 6 7 6 4 4 3 3 4 4 3 3 4 3 3 4 2 3 3 4 4 4 9 7 5 4 4 3 3 3 3 4 4 5 5 6
8 9 9 8 7 7 7 6 6 6 7 6 6 5 4 4 3 3 3 3 2 3 4 4 4 4 4 4 5 9 8 6 5 5 4 4 4 4 4 4 5 5 6
7 8 9 9 8 8 8 7 7 7 6 7 7 6 4 5 4 4 4 3 3 4 5 5 4 4 3 4 5 8 7 9 7 6 6 5 5 5 5 5 5 6 6
7 9 9 9 9 9 8 8 6 7 6 7 7 8 7 5 5 4 4 4 4 4 4 5 5 4 4 3 6 6 6 9 8 7 7 7 6 6 6 7 7 7 7
8 9 10 10 9 9 9 8 7 7 7 6 5 5 6 6 4 5 4 4 4 5 4 3 4 4 3 4 6 6 5 9 9 9 8 8 8 8 8 8 8 8 9
10 10 10 10 10 9 8 8 8 8 8 7 7 7 8 6 5 5 5 4 5 5 5 3 3 3 4 6 4 5 6 7 8 12 10 9 9 9 9 9 9 9 9
11 11 10 10 10 10 9 9 9 9 8 8 8 8 8 6 6 6 5 6 5 4 6 5 4 5 7 6 6 6 7 7 6 10 12 10 10 10 10 10 10 10 10
11 10 10 10 10 10 9 9 9 9 9 9 8 9 9 8 8 6 6 6 6 6 5 6 6 4 5 6 6 7 8 5 8 7 12 12 12 11 11 11 11 11 10
10 10 11 11 10 10 10 9 9 9 9 8 8 8 9 9 9 8 7 7 7 6 6 7 6 5 5 6 6 7 7 7 8 7 6 6 9 13 13 13 13 12 11
11 10 10 10 10 9 9 10 10 10 9 8 8 8 8 7 5 5 6 6 7 7 7 7 7 6 6 5 6 6 7 6 6 7 6 7 7 8 10 13 14 13 12
10 10 10 11 11 9 8 8 8 9 8 9 8 8 8 8 8 7 6 5 5 8 8 7 7 6 6 6 5 6 6 7 7 5 6 7 7 7 7 7 7 10 11
10 10 10 10 10 8 9 10 9 8 8 8 8 8 8 7 10 10 10 10 9 9 7 8 9 8 6 6 5 8 6 7 7 6 5 8 7 8 8 6 8 9 10
9 9 9 9 9 9 10 10 9 9 8 8 8 8 8 8 8 9 9 10 10 10 10 10 8 8 7 5 5 7 7 8 9 8 7 9 8 8 8 7 8 11 11
8 9 9 9 9 8 11 11 10 9 8 9 9 9 9 9 7 7 9 9 9 8 7 7 6 5 3 3 5 7 8 9 9 7 6 8 8 8 8 8 6 11 12
8 8 8 9 9 9 11 13 13 9 8 8 8 8 8 9 6 10 10 9 10 8 7 6 7 8 8 8 8 9 9 9 8 8 5 6 8 8 8 7 6 6 8
Wind_Direction
155 142 135 141 149 137 152 151 127 121 123 124 124 113 100 96 108 113 118 134 138 142 148 151 153 156 154 152 152 153 150 148 149 151 152 154 154 152 149 149 149 150 149
149 151 153 158 146 148 127 143 134 147 142 118 127 120 124 122 118 127 128 140 148 153 157 157 163 165 162 164 165 165 164 160 160 163 168 168 167 168 166 166 167 166 166
157 168 157 171 152 141 144 166 148 159 159 146 133 131 127 118 124 127 131 142 151 159 161 163 169 173 169 169 170 171 171 170 172 176 180 181 179 178 180 181 183 182 182
173 184 173 172 157 173 171 157 185 174 143 152 142 139 122 125 138 148 153 159 152 148 159 163 168 174 176 173 174 176 176 178 184 186 188 188 189 191 193 194 196 195 196
181 194 188 157 183 183 184 196 152 182 156 160 159 146 146 143 155 153 145 150 151 163 153 149 161 171 180 180 181 183 185 188 191 193 195 197 198 200 203 205 206 207 208
190 199 190 176 199 189 190 192 152 182 180 199 189 124 154 145 167 150 178 156 162 176 172 154 165 165 168 172 177 184 189 192 193 197 201 205 206 204 205 210 212 215 217
192 205 205 175 206 198 202 195 192 180 187 175 180 171 160 158 160 174 179 173 162 162 156 171 180 157 164 169 175 179 186 192 193 197 201 204 206 205 207 213 217 220 223
201 199 206 200 198 194 197 204 207 205 192 188 220 209 186 165 187 168 168 178 163 167 174 173 151 175 193 164 150 175 188 197 198 197 200 201 204 205 209 216 219 223 227
207 213 200 213 200 210 193 203 203 208 206 195 223 253 249 190 161 157 168 161 166 177 187 166 174 168 184 173 162 160 172 185 197 201 203 203 203 206 215 223 229 231 233
205 204 208 209 211 217 197 209 202 212 217 211 192 238 283 341 258 169 172 160 170 187 194 188 162 167 179 180 137 125 154 173 192 203 205 204 205 209 217 223 229 232 235
204 205 205 208 210 219 212 220 199 223 219 227 214 204 209 216 241 237 188 174 181 184 180 188 184 175 170 181 178 142 154 170 178 186 192 194 199 204 215 227 237 242 242
198 203 206 207 212 216 210 212 213 215 230 229 242 231 218 224 227 223 212 205 188 174 178 187 200 187 185 186 166 132 155 171 179 184 192 195 200 206 218 230 239 244 247
196 198 206 207 212 212 214 213 210 222 217 218 230 235 235 242 247 241 236 215 194 177 179 203 200 198 197 182 155 153 166 178 187 194 199 203 209 215 226 237 246 250 253
202 192 202 208 211 210 212 208 214 212 214 220 228 236 240 234 231 234 238 229 218 208 196 201 191 198 203 196 142 183 174 179 194 203 209 213 219 227 234 240 247 253 255
200 193 200 207 209 209 211 208 215 212 208 218 221 214 227 222 226 233 235 243 249 241 212 186 205 189 205 198 157 206 202 174 193 208 216 223 229 234 239 244 248 252 254
205 196 199 205 207 207 207 209 209 208 210 216 228 226 225 220 211 220 227 237 253 266 265 199 198 194 199 209 180 221 223 165 195 208 219 226 233 237 241 245 248 250 252
201 201 203 203 203 205 205 210 215 202 212 213 215 211 217 227 221 218 218 228 237 246 253 238 210 176 195 247 194 223 227 223 206 196 210 223 233 239 242 244 246 246 248
205 204 205 205 206 205 203 208 214 209 212 215 216 214 214 210 216 238 231 231 233 245 254 250 231 201 204 222 224 236 239 228 239 184 198 217 231 238 241 242 242 243 245
204 204 205 206 206 204 203 207 212 213 215 217 216 216 218 216 218 224 231 234 229 225 238 249 240 222 217 217 222 231 241 247 257 205 197 212 221 231 237 239 239 241 244
204 204 206 208 207 204 203 204 209 212 213 214 217 220 222 220 221 223 225 233 240 241 231 245 245 227 223 212 230 240 236 220 242 253 237 229 216 218 229 233 233 236 241
205 204 206 208 205 205 205 201 206 207 207 212 215 220 224 228 240 239 246 229 227 235 236 236 242 238 230 220 233 244 251 253 240 247 254 250 235 235 225 223 225 229 234
201 202 204 205 203 206 181 189 211 209 207 212 215 220 222 213 216 223 255 272 271 248 253 256 250 248 248 245 251 261 262 259 258 234 247 262 261 260 257 254 203 202 219
196 200 203 204 205 198 174 184 204 220 217 218 220 221 231 214 206 217 214 223 238 246 256 265 267 269 262 249 254 256 256 267 275 282 265 267 262 260 261 254 185 206 224
195 199 202 203 202 194 177 186 194 218 227 226 225 224 231 234 216 221 225 221 225 222 221 230 250 260 266 274 255 256 268 259 255 253 253 265 270 268 270 267 202 209 226
194 197 197 198 201 191 177 183 191 215 224 229 229 227 228 231 212 203 231 237 237 234 216 217 236 251 288 278 265 260 255 256 259 254 232 254 271 276 274 269 242 208 221
194 197 197 200 202 200 181 182 193 219 221 224 224 227 226 235 208 190 224 236 241 242 245 214 214 229 236 235 225 241 256 259 265 267 255 252 270 280 278 270 270 257 239